Showing default

INTELSAT 10 (PAS 10), 26766

Orbit data source: Space-Track

INTELSAT 10 (PAS 10), 26766 is a payload satellite owned by Panamsat (US) in GEO that was launched on Tue, 15 May 2001 UTC via a PROTON-K/DM-2M launch vehicle from the Tyuratam Missile And Space Complex (TTMTR). Payload-class satellites include a variety of spacecraft equipped with specific instruments for various scientific and technological missions. These include communications satellites like Starlink; space stations such as the ISS; scientific satellites like the Hubble; Earth observation satellites from companies like Planet Labs, Umbra, and HawkEye 360; GPS; miniature CubeSats for education and research; and military/defense satellites.

Not visible in the next 10 days
Identifier
26766, 2001-019A
Orbit
GEO
Last TLE update
4 days ago
Origin
Manufacturer
Boeing/ES
Mission
Operational Commercial Communications
Bus & Motor
HS-601HP, R-4D-11-300
Mass
3,772 kg wet, ~2,000 kg dry
Launch date (UTC)
2001-05-15 (24 years ago)
Launch vehicle
PROTON-K/DM-2M
Launch site
Tyuratam Missile And Space Complex (TTMTR)
Object type
Payload
Rocket body
Debris
Shape & HBR
Box + 2 Pan, 13.0 m
Radar Cross Section
31.072 m², Large (>1 m²)

Expand to show TLE details & history

TLE from 4 days ago
0 INTELSAT 10 (PAS 10)
1 26766U 01019A   25195.64255279  .00000108  00000-0  00000-0 0  9999
2 26766   8.2632  62.6903 0001639 307.2525 214.0116  0.99719504 42239
Epoch: 2025-07-14T15:25Z
TLE epoch observation values (Epoch: 2025-07-14T15:25:16.561Z)
Latitude
2.65932°
Longitude
60.06398°
Altitude
35,947.062 km
Speed
3.069 km/s
True Right ascension
14h 56m 31s
True Declination
2° 39' 24"
Sunlit
Object was in daylight at epoch
Visualization orbit readout
Latitude
-8.22405°
Longitude
176.28774°
Altitude
35,936.727 km
Speed
3.069 km/s
Apparent Right ascension
22h 51m 04s
Apparent Declination
-12° 17' 52"
Sunlit
Object is in daylight
Visualization observer readout
Local Sidereal Time
12:15:32
Azimuth
39.867° NE
Elevation
-56.692°
Doppler factor
1
Orbital elements
Apogee altitude
35,950.104 km
Perigee altitude
35,936.231 km
Semi-major axis
42,321.305 km
Eccentricity
0.00016
Inclination
8.2632°
RAAN
62.6903°
Arg. of periapsis
307.2525°
True anomaly
214.0011°
Mean anomaly
214.0116°
Eccentric anomaly
214.00635°
Mean motion
0.24929 °/min
Orbital period
1,444.1 mins
BSTAR
0
Loading maneuver chart data...
Loading SW <> Apogee altitude chart data...
Loading historical data...
Loading historical data...
Loading historical data...
Loading historical data...
Loading historical data...
Loading historical data...
Loading historical data...
Other satellites on launch #19 in the year 2001 (2001-05-15 UTC)
|